STARLINK-32710, 62604

Orbit data source: Space-Track

STARLINK-32710, 62604 is a payload satellite owned by SpaceX/Seattle (US) in LEO that was launched on Mon, 13 Jan 2025 UTC via an FALCON 9 launch vehicle from the Air Force Eastern Test Range (AFETR). Payload-class satellites include a variety of spacecraft equipped with specific instruments for various scientific and technological missions. These include communications satellites like Starlink; space stations such as the ISS; scientific satellites like the Hubble; Earth observation satellites from companies like Planet Labs, Umbra, and HawkEye 360; GPS; miniature CubeSats for education and research; and military/defense satellites.

Loading next visibility...
Identifier
62604, 2025-008T
Orbit
LEO
Country
Flag of USUS
Related business
Manufacturer
SpaceX/Seattle
Mission
Operational Commercial Communications
Bus & Motor
STARLINK V2M, Unknown motor
Mass
730 kg wet, ~700 kg dry
Launch date (UTC)
2025-01-13 (1 year ago)
Launch vehicle
FALCON 9
Launch site
Air Force Eastern Test Range (AFETR)
Object type
Payload
Rocket body
Debris
Shape & HBR
Box + 2 Pan, 17.7 m
Radar Cross Section
33.884 m², Large (>1 m²)

Expand to show TLE details & history
Last TLE update: 6 hours ago

TLE from 6 hours ago
0 STARLINK-32710
1 62604U 25008T   26120.96864173  .00014619  00000-0  53943-3 0  9996
2 62604  43.0033 342.3409 0001100 293.6876  66.3860 15.27596937 73565
Epoch: 2026-04-30T23:14Z
TLE epoch observation values (Epoch: 2026-04-30T23:14:50.645Z)
Latitude
-0.00003°
Longitude
134.72221°
Altitude
482.472 km
Speed
7.626 km/s
True Right ascension
22h 49m 21s
True Declination
0° 00' 00"
Sunlit
Object was in daylight at epoch
Visualization orbit readout
Latitude
Unknown
Longitude
Unknown
Altitude
Unknown
Speed
Unknown
Apparent Right ascension
Unknown
Apparent Declination
Unknown
Sunlit
N/A
Visualization observer readout
Local Sidereal Time
13:20:22
Azimuth
Unknown
Elevation
Unknown
Doppler factor
Unknown
Orbital elements
Apogee altitude
485.698 km
Perigee altitude
484.188 km
Semi-major axis
6,863.08 km
Eccentricity
0.00011
Inclination
43.0033°
RAAN
342.3409°
Arg. of periapsis
293.6876°
True anomaly
66.39755°
Mean anomaly
66.386°
Eccentric anomaly
66.39178°
Mean motion
3.81737 °/min
Orbital period
94.31 mins
BSTAR
0.00053943
Loading maneuver chart data...
Computing Atmospheric mass density...
Loading historical data...
Loading historical data...
Loading historical data...
Loading historical data...
Loading historical data...
Loading historical data...
Loading historical data...

Documentation

Showing up to 5 results
|